{"data":{"norad_id":40351,"epoch":"2026-05-25T00:55:35.523840Z","epoch_age_seconds":71986,"freshness":"FRESH","line1":"1 40351U 14083D   26145.03860560 -.00000024  00000+0  00000+0 0  9990","line2":"2 40351   0.0577 356.4474 0002707  64.9731 298.6062  5.00115978208912","mean_motion":5.00115978,"eccentricity":0.0002707,"inclination_deg":0.0577,"raan_deg":356.4474,"arg_perigee_deg":64.9731,"mean_anomaly_deg":298.6062,"bstar":0,"rev_number":20891,"period_min":287.93321216384,"perigee_km":8061.9710190848,"apogee_km":8069.791010438,"semimajor_km":14444.018014761,"source":"CELESTRAK","updated_at":"2026-05-25T13:38:14.511282Z"}}